Location: Berg
(47.2344°N, 9.5296°E)
Time: 23:45:49
(UTC+00:00)

Nadezhda 4 Rocket - Pass Details

Date: 17 May 2021
Orbit: 949 x 993 km, 82.9° (Epoch: 21 June)

Event Time Altitude Azimuth Distance (km) Brightness Sun altitude
Rises 02:39:24 0° 128° (SE) 3,695 7.2 -9.6°
Reaches altitude 10° 02:43:23 10° 103° (ESE) 2,746 6.9 -9.1°
Maximum altitude 02:46:12 13° 76° (ENE) 2,502 7.2 -8.7°
Drops below altitude 10° 02:49:00 10° 50° (NE) 2,743 8.1 -8.3°
Sets 02:52:57 0° 25° (NNE) 3,687 8.4 -7.8°
